Weather History for Cincinnati, OH

Change the Weather History Date:

Saturday, December 21, 2013

  Actual Average Record
Temperature  
Mean Temperature 62 °F -  
Max Temperature 66 °F 39 °F 70 °F (1967)
Min Temperature 57 °F 24 °F -10 °F (1989)
Degree Days  
Heating Degree Days 4    
Growing Degree Days 12 (Base 50)    
Moisture  
Dew Point 59 °F    
Average Humidity 93    
Maximum Humidity 100    
Minimum Humidity 83    
Precipitation  
Precipitation 1.55 in - - ()
Sea Level Pressure  
Sea Level Pressure 29.71 in    
Wind  
Wind Speed 12 mph (SSW)    
Max Wind Speed 22 mph    
Max Gust Speed 44 mph    
Visibility 7 miles    
Events Rain    
Averages and records for this station are not official NWS values.
T = Trace of Precipitation, MM = Missing Value Source: NWS Daily Summary

Daily Weather History Graph

Daily Weather History Graph

Search for Another Location

Airport:

Trip Planner

Search our weather history database for the weather conditions in past years. The results will help you decide how hot, cold, wet, or windy it might be!

Date:

Astronomy

Dec. 21, 2013 Rise Set
Actual Time 7:53 AM EST 5:18 PM EST
Civil Twilight 7:23 AM EST 5:48 PM EST
Nautical Twilight 6:49 AM EST 6:22 PM EST
Astronomical Twilight 6:17 AM EST 6:54 PM EST
Moon 9:32 PM EST (12/21) 10:20 AM EST (12/21)
Length of Visible Light 10h 25m
Length of Day
9h 25m
Waning Gibbous, 84% of the Moon is Illuminated
Dec 21
Waning Gibbous
Dec 25
Last Quarter
Jan 1
New
Jan 7
First Quarter
Jan 15
Full

Hourly Weather History & Observations

Time (EST) Temp. Dew Point Humidity Pressure Visibility Wind Dir Wind Speed Gust Speed Precip Events Conditions
12:53 AM 60.1 °F 55.9 °F 86% 29.84 in 10.0 mi South 12.7 mph - N/A   Overcast
1:53 AM 60.1 °F 55.9 °F 86% 29.83 in 10.0 mi South 11.5 mph - 0.00 in Rain Light Rain
2:53 AM 59.0 °F 55.9 °F 90% 29.83 in 10.0 mi South 12.7 mph - 0.02 in Rain Light Rain
3:22 AM 59.0 °F 55.4 °F 88% 29.83 in 7.0 mi South 11.5 mph - 0.03 in Rain Light Rain
3:44 AM 57.2 °F 55.4 °F 94% 29.82 in 10.0 mi South 11.5 mph - 0.03 in Rain Light Rain
3:53 AM 57.9 °F 55.9 °F 93% 29.82 in 10.0 mi South 9.2 mph - 0.04 in Rain Light Rain
4:53 AM 57.0 °F 55.9 °F 96% 29.81 in 4.0 mi South 8.1 mph - 0.06 in Rain Rain
5:53 AM 57.0 °F 55.9 °F 96% 29.81 in 7.0 mi South 9.2 mph - 0.03 in Rain Light Rain
6:18 AM 57.2 °F 55.4 °F 94% 29.81 in 4.0 mi South 9.2 mph - 0.04 in Rain Rain
6:29 AM 57.2 °F 55.4 °F 94% 29.81 in 5.0 mi South 10.4 mph - 0.06 in Rain Rain
6:53 AM 57.9 °F 57.0 °F 97% 29.80 in 6.0 mi South 10.4 mph - 0.10 in Rain Light Rain
7:14 AM 57.2 °F 57.2 °F 100% 29.79 in 7.0 mi South 12.7 mph 19.6 mph 0.02 in Rain Light Rain
7:53 AM 57.9 °F 57.0 °F 97% 29.79 in 10.0 mi South 11.5 mph - 0.03 in Rain Light Rain
8:53 AM 59.0 °F 57.0 °F 93% 29.79 in 4.0 mi South 13.8 mph - 0.11 in Rain Rain
8:59 AM 59.0 °F 57.2 °F 94% 29.79 in 2.5 mi South 12.7 mph - 0.06 in Rain Heavy Rain
9:02 AM 59.0 °F 57.2 °F 94% 29.80 in 4.0 mi South 12.7 mph - 0.08 in Rain Heavy Rain
9:53 AM 59.0 °F 57.0 °F 93% 29.80 in 8.0 mi South 10.4 mph - 0.26 in Rain Light Rain
10:53 AM 59.0 °F 57.9 °F 96% 29.79 in 6.0 mi South 10.4 mph - 0.08 in Rain Light Rain
11:53 AM 60.1 °F 57.9 °F 93% 29.76 in 5.0 mi South 8.1 mph - 0.09 in Rain Light Rain
12:15 PM 60.8 °F 57.2 °F 88% 29.75 in 3.0 mi South 8.1 mph - 0.03 in Rain Light Rain
12:19 PM 60.8 °F 57.2 °F 88% 29.75 in 4.0 mi SSW 8.1 mph - 0.04 in Rain Light Rain
12:29 PM 60.8 °F 59.0 °F 94% 29.74 in 4.0 mi South 5.8 mph - 0.05 in Rain Rain
12:53 PM 59.0 °F 57.9 °F 96% 29.73 in 5.0 mi SSW 4.6 mph - 0.06 in Rain Light Rain
1:53 PM 60.1 °F 59.0 °F 96% 29.72 in 5.0 mi SSW 8.1 mph - 0.05 in Rain Light Rain
2:05 PM 60.8 °F 59.0 °F 94% 29.72 in 5.0 mi South 11.5 mph - 0.01 in Rain Light Rain
2:53 PM 62.1 °F 60.1 °F 93% 29.70 in 5.0 mi SSW 6.9 mph - 0.01 in   Overcast
2:56 PM 62.6 °F 60.8 °F 94% 29.70 in 10.0 mi SSW 8.1 mph - N/A   Overcast
3:53 PM 63.0 °F 61.0 °F 93% 29.69 in 10.0 mi South 9.2 mph - N/A   Scattered Clouds
4:53 PM 63.0 °F 61.0 °F 93% 29.70 in 10.0 mi SSW 8.1 mph - 0.00 in   Mostly Cloudy
5:53 PM 64.9 °F 62.1 °F 90% 29.69 in 10.0 mi South 10.4 mph - 0.00 in   Mostly Cloudy
6:53 PM 64.9 °F 62.1 °F 90% 29.66 in 10.0 mi South 12.7 mph 18.4 mph 0.00 in   Mostly Cloudy
7:22 PM 64.4 °F 62.6 °F 94% 29.65 in 10.0 mi South 13.8 mph 27.6 mph 0.00 in Rain Light Rain
7:53 PM 64.9 °F 62.1 °F 90% 29.62 in 10.0 mi South 12.7 mph 25.3 mph 0.01 in   Mostly Cloudy
8:32 PM 64.4 °F 62.6 °F 94% 29.58 in 10.0 mi South 17.3 mph 27.6 mph N/A   Mostly Cloudy
8:53 PM 64.9 °F 62.1 °F 90% 29.56 in 10.0 mi South 13.8 mph 27.6 mph N/A   Mostly Cloudy
9:22 PM 66.2 °F 60.8 °F 83% 29.53 in 10.0 mi South 16.1 mph 24.2 mph N/A   Mostly Cloudy
9:53 PM 66.0 °F 61.0 °F 84% 29.50 in 10.0 mi South 18.4 mph 29.9 mph N/A   Overcast
10:42 PM 64.4 °F 64.4 °F 100% 29.54 in 2.5 mi West 21.9 mph 43.7 mph 0.11 in Rain Heavy Rain
10:53 PM 63.0 °F 63.0 °F 100% 29.55 in 2.0 mi WSW 20.7 mph 31.1 mph 0.22 in Rain Heavy Rain
11:07 PM 62.6 °F - N/A% 29.58 in 3.0 mi WSW 16.1 mph 20.7 mph 0.08 in Rain Heavy Rain
11:11 PM 62.6 °F - N/A% 29.58 in 1.8 mi SW 15.0 mph - 0.15 in Rain Heavy Rain
11:32 PM 62.6 °F - N/A% 29.59 in 3.0 mi SSW 16.1 mph 27.6 mph 0.33 in Rain Rain
11:53 PM 62.1 °F - N/A% 29.59 in 6.0 mi SSW 12.7 mph - 0.38 in Rain Light Rain